When you browse on this site, cookies collect data to enhance your experience and personalize the content and advertising you see.
Visit our Privacy Policy to learn more. By continuing to use the site, you agree to this use of cookies and data.
  • In Hungary
  • List of Countries
  • For 7 days
  • Water Temperature
  • Satellite Maps
  • Weather Map
  • News
  • Weather Widgets
  • user-avatar
    Login

    Hourly Weather SanFrancisco

    Today, 19 November, Monday

    Time Temperature Precipitation Wind Pressure Humidity
    00:00 +20°C° 0 mm 2 mps 682 mmHg 91%
    01:00 +20°C° 0 mm 2 mps 681 mmHg 91%
    02:00 +20°C° 0 mm 1 mps 681 mmHg 92%
    03:00 +20°C° 0 mm 1 mps 681 mmHg 92%
    04:00 +20°C° 0 mm 1 mps 681 mmHg 92%
    05:00 +20°C° 0 mm 1 mps 681 mmHg 92%
    06:00 +21°C° 0 mm 1 mps 682 mmHg 89%
    07:00 +22°C° 0 mm 1 mps 682 mmHg 86%
    08:00 +22°C° 0 mm 1 mps 683 mmHg 83%
    09:00 +24°C° 0 mm 1 mps 683 mmHg 77%
    10:00 +26°C° 0 mm 2 mps 683 mmHg 71%
    11:00 +27°C° 0 mm 2 mps 684 mmHg 65%
    12:00 +27°C° 0.1 mm 2 mps 683 mmHg 65%
    13:00 +28°C° 0.1 mm 2 mps 682 mmHg 64%
    14:00 +28°C° 0.1 mm 2 mps 682 mmHg 64%
    15:00 +27°C° 0.3 mm 2 mps 681 mmHg 68%
    16:00 +27°C° 0.3 mm 2 mps 681 mmHg 71%
    17:00 +26°C° 0.3 mm 2 mps 681 mmHg 75%
    18:00 +25°C° 0.2 mm 2 mps 681 mmHg 80%
    19:00 +24°C° 0.2 mm 2 mps 681 mmHg 85%
    20:00 +21°C° 0.2 mm 2 mps 681 mmHg 90%
    21:00 +21°C° 0 mm 2 mps 681 mmHg 91%
    22:00 +21°C° 0 mm 2 mps 681 mmHg 92%
    23:00 +20°C° 0 mm 2 mps 682 mmHg 93%

    Tomorrow, 20 November, Tuesday

    Time Temperature Precipitation Wind Pressure Humidity
    00:00 +21°C° 0 mm 1 mps 681 mmHg 93%
    01:00 +21°C° 0 mm 1 mps 681 mmHg 93%
    02:00 +21°C° 0 mm 1 mps 681 mmHg 93%
    03:00 +21°C° 0 mm 1 mps 681 mmHg 93%
    04:00 +21°C° 0 mm 1 mps 681 mmHg 93%
    05:00 +21°C° 0 mm 1 mps 681 mmHg 94%
    06:00 +21°C° 0 mm 1 mps 681 mmHg 91%
    07:00 +22°C° 0 mm 1 mps 682 mmHg 87%
    08:00 +23°C° 0 mm 1 mps 682 mmHg 84%
    09:00 +24°C° 0 mm 1 mps 683 mmHg 77%
    10:00 +26°C° 0 mm 2 mps 683 mmHg 69%
    11:00 +28°C° 0 mm 2 mps 684 mmHg 61%
    12:00 +28°C° 0.4 mm 2 mps 683 mmHg 62%
    13:00 +28°C° 0.4 mm 2 mps 682 mmHg 62%
    14:00 +28°C° 0.4 mm 2 mps 682 mmHg 62%
    15:00 +28°C° 0.7 mm 2 mps 681 mmHg 66%
    16:00 +27°C° 0.7 mm 2 mps 681 mmHg 70%
    17:00 +26°C° 0.7 mm 2 mps 680 mmHg 74%
    18:00 +25°C° 0.3 mm 2 mps 681 mmHg 78%
    19:00 +24°C° 0.3 mm 2 mps 681 mmHg 83%
    20:00 +21°C° 0.3 mm 2 mps 681 mmHg 88%
    21:00 +21°C° 0 mm 2 mps 682 mmHg 89%
    22:00 +21°C° 0 mm 2 mps 682 mmHg 90%
    23:00 +20°C° 0 mm 2 mps 682 mmHg 91%

    Day after tomorrow, 21 November, Wednesday

    Time Temperature Precipitation Wind Pressure Humidity
    00:00 +20°C° 0 mm 2 mps 682 mmHg 91%
    01:00 +20°C° 0 mm 2 mps 682 mmHg 91%
    02:00 +21°C° 0 mm 1 mps 681 mmHg 92%
    03:00 +21°C° 0 mm 1 mps 681 mmHg 92%
    04:00 +21°C° 0 mm 1 mps 681 mmHg 92%
    05:00 +20°C° 0 mm 1 mps 681 mmHg 93%
    06:00 +21°C° 0 mm 1 mps 682 mmHg 90%
    07:00 +22°C° 0 mm 1 mps 682 mmHg 87%
    08:00 +23°C° 0 mm 1 mps 683 mmHg 84%
    09:00 +24°C° 0 mm 2 mps 683 mmHg 78%
    10:00 +25°C° 0 mm 2 mps 684 mmHg 72%
    11:00 +27°C° 0 mm 2 mps 684 mmHg 66%
    12:00 +27°C° 0 mm 2 mps 684 mmHg 65%
    13:00 +27°C° 0 mm 2 mps 683 mmHg 63%
    14:00 +28°C° 0 mm 2 mps 682 mmHg 62%
    15:00 +27°C° 0 mm 2 mps 682 mmHg 66%
    16:00 +26°C° 0 mm 2 mps 681 mmHg 69%
    17:00 +26°C° 0 mm 2 mps 681 mmHg 73%
    18:00 +24°C° 0 mm 2 mps 681 mmHg 78%
    19:00 +23°C° 0 mm 2 mps 681 mmHg 83%
    20:00 +21°C° 0 mm 2 mps 681 mmHg 88%
    21:00 +20°C° 0 mm 2 mps 681 mmHg 89%
    22:00 +20°C° 0 mm 2 mps 681 mmHg 91%
    23:00 +19°C° 0 mm 2 mps 681 mmHg 92%

    22 November, Thursday

    Time Temperature Precipitation Wind Pressure Humidity
    00:00 +19°C° 0 mm 2 mps 681 mmHg 92%
    01:00 +19°C° 0 mm 2 mps 681 mmHg 92%
    02:00 +19°C° 0 mm 1 mps 680 mmHg 92%
    03:00 +19°C° 0 mm 1 mps 680 mmHg 92%
    04:00 +19°C° 0 mm 1 mps 680 mmHg 92%
    05:00 +19°C° 0 mm 1 mps 680 mmHg 93%
    06:00 +20°C° 0 mm 1 mps 681 mmHg 90%
    07:00 +21°C° 0 mm 1 mps 682 mmHg 87%
    08:00 +22°C° 0 mm 1 mps 682 mmHg 84%
    09:00 +24°C° 0 mm 1 mps 683 mmHg 76%
    10:00 +25°C° 0 mm 1 mps 683 mmHg 69%
    11:00 +27°C° 0 mm 1 mps 684 mmHg 61%
    12:00 +28°C° 0 mm 1 mps 683 mmHg 59%
    13:00 +28°C° 0 mm 2 mps 682 mmHg 56%
    14:00 +29°C° 0 mm 2 mps 681 mmHg 54%
    15:00 +28°C° 0 mm 1 mps 681 mmHg 58%
    16:00 +27°C° 0 mm 1 mps 680 mmHg 63%
    17:00 +27°C° 0 mm 1 mps 680 mmHg 68%
    18:00 +25°C° 0 mm 1 mps 680 mmHg 74%
    19:00 +23°C° 0 mm 1 mps 680 mmHg 80%
    20:00 +22°C° 0 mm 1 mps 680 mmHg 86%
    21:00 +22°C° 0 mm 1 mps 680 mmHg 88%
    22:00 +21°C° 0 mm 1 mps 681 mmHg 90%
    23:00 +21°C° 0 mm 1 mps 681 mmHg 91%

    23 November, Friday

    Time Temperature Precipitation Wind Pressure Humidity
    00:00 +21°C° 0 mm 1 mps 681 mmHg 92%
    01:00 +20°C° 0 mm 1 mps 680 mmHg 93%
    02:00 +20°C° 0 mm 1 mps 680 mmHg 93%
    03:00 +20°C° 0 mm 1 mps 680 mmHg 93%
    04:00 +20°C° 0 mm 1 mps 680 mmHg 93%
    05:00 +20°C° 0 mm 1 mps 680 mmHg 93%
    06:00 +21°C° 0 mm 1 mps 680 mmHg 90%
    07:00 +21°C° 0 mm 1 mps 681 mmHg 87%
    08:00 +22°C° 0 mm 1 mps 681 mmHg 83%
    09:00 +24°C° 0 mm 1 mps 682 mmHg 75%
    10:00 +26°C° 0 mm 1 mps 682 mmHg 66%
    11:00 +28°C° 0 mm 1 mps 683 mmHg 58%
    12:00 +28°C° 0.2 mm 1 mps 682 mmHg 58%
    13:00 +28°C° 0.2 mm 1 mps 681 mmHg 58%
    14:00 +28°C° 0.2 mm 1 mps 680 mmHg 58%
    15:00 +27°C° 0.7 mm 1 mps 680 mmHg 63%
    16:00 +27°C° 0.7 mm 1 mps 679 mmHg 68%
    17:00 +26°C° 0.7 mm 1 mps 679 mmHg 73%
    18:00 +24°C° 0.1 mm 1 mps 679 mmHg 77%
    19:00 +23°C° 0.1 mm 1 mps 679 mmHg 82%
    20:00 +22°C° 0.1 mm 1 mps 680 mmHg 86%
    21:00 +22°C° 0 mm 1 mps 680 mmHg 88%
    22:00 +21°C° 0 mm 1 mps 680 mmHg 89%
    23:00 +21°C° 0 mm 1 mps 680 mmHg 91%

    24 November, Saturday

    Time Temperature Precipitation Wind Pressure Humidity
    00:00 +21°C° 0 mm 1 mps 680 mmHg 92%
    01:00 +21°C° 0 mm 1 mps 679 mmHg 93%
    02:00 +20°C° 0 mm 1 mps 679 mmHg 93%
    03:00 +20°C° 0 mm 1 mps 679 mmHg 93%
    04:00 +20°C° 0 mm 1 mps 679 mmHg 94%
    05:00 +20°C° 0 mm 1 mps 679 mmHg 94%
    06:00 +21°C° 0 mm 1 mps 680 mmHg 90%
    07:00 +22°C° 0 mm 1 mps 681 mmHg 86%
    08:00 +23°C° 0 mm 1 mps 681 mmHg 82%
    09:00 +24°C° 0 mm 1 mps 682 mmHg 73%
    10:00 +26°C° 0 mm 1 mps 682 mmHg 65%
    11:00 +28°C° 0 mm 1 mps 683 mmHg 56%
    12:00 +29°C° 0.2 mm 1 mps 682 mmHg 56%
    13:00 +29°C° 0.2 mm 2 mps 681 mmHg 56%
    14:00 +29°C° 0.2 mm 2 mps 681 mmHg 56%
    15:00 +28°C° 0.7 mm 1 mps 680 mmHg 60%
    16:00 +27°C° 0.7 mm 1 mps 680 mmHg 64%
    17:00 +27°C° 0.7 mm 1 mps 679 mmHg 68%
    18:00 +25°C° 0.1 mm 1 mps 680 mmHg 73%
    19:00 +24°C° 0.1 mm 1 mps 680 mmHg 78%
    20:00 +22°C° 0.1 mm 1 mps 680 mmHg 83%
    21:00 +22°C° 0 mm 1 mps 680 mmHg 84%
    22:00 +22°C° 0 mm 1 mps 680 mmHg 86%
    23:00 +21°C° 0 mm 1 mps 680 mmHg 88%
    Show more